Showing default

OPS 4947 (TRANSIT 17), 2965

Orbit data source: Space-Track

OPS 4947 (TRANSIT 17), 2965 is a payload satellite owned by USN NAVAIR (US) in LEO that was launched on Mon, 25 Sep 1967 UTC via an SCOUT A launch vehicle from the Air Force Western Test Range (AFWTR). Payload-class satellites include a variety of spacecraft equipped with specific instruments for various scientific and technological missions. These include communications satellites like Starlink; space stations such as the ISS; scientific satellites like the Hubble; Earth observation satellites from companies like Planet Labs, Umbra, and HawkEye 360; GPS; miniature CubeSats for education and research; and military/defense satellites.

Loading next visibility...
Identifier
2965, 1967-092A
Orbit
LEO
Country
Flag of USUS
Related business
Manufacturer
APL
Mission
Spacecraft
Bus & Motor
TRANSIT 5, Unknown motor
Mass
~50 kg wet, ~50 kg dry
Launch date (UTC)
1967-09-25 (58 years ago)
Launch vehicle
SCOUT A
Launch site
Air Force Western Test Range (AFWTR)
Object type
Payload
Rocket body
Debris
Shape & HBR
Unknown
Radar Cross Section
Large (>1 m²)

Expand to show TLE details & history
Last TLE update: 22 hours ago

TLE from 22 hours ago
0 OPS 4947 (TRANSIT 17)
1 02965U 67092A   25300.52124317  .00000151  00000-0  20628-3 0  9999
2 02965  89.2536  27.9479 0047670  12.6288 358.3400 13.53437310864726
Epoch: 2025-10-27T12:30Z
TLE epoch observation values (Epoch: 2025-10-27T12:30:35.409Z)
Latitude
10.90193°
Longitude
164.32149°
Altitude
1,026.396 km
Speed
7.357 km/s
True Right ascension
01h 52m 21s
True Declination
10° 50' 26"
Sunlit
Object was in full shadow at epoch
Visualization orbit readout
Latitude
Unknown
Longitude
Unknown
Altitude
Unknown
Speed
Unknown
Apparent Right ascension
Unknown
Apparent Declination
Unknown
Sunlit
N/A
Visualization observer readout
Local Sidereal Time
06:15:55
Azimuth
Unknown
Elevation
Unknown
Doppler factor
Unknown
Orbital elements
Apogee altitude
1,092.127 km
Perigee altitude
1,021.243 km
Semi-major axis
7,434.822 km
Eccentricity
0.00477
Inclination
89.2536°
RAAN
27.9479°
Arg. of periapsis
12.6288°
True anomaly
358.32408°
Mean anomaly
358.34°
Eccentric anomaly
358.33205°
Mean motion
3.38561 °/min
Orbital period
106.33 mins
BSTAR
0.00020628
Loading maneuver chart data...
Computing Atmospheric mass density...
Loading historical data...
Loading historical data...
Loading historical data...
Loading historical data...
Loading historical data...
Loading historical data...
Loading historical data...

Documentation

Showing up to 5 results
|